Location: Oregon Star Party
(44.2935°N, 120.1332°W)
Time: 12:54:26
(UTC-07:00)

Amateur Radio Satellites - All Passes

Search period start: 27 May 2015 12:24
Search period end: 28 May 2015 12:24
Location: Oregon Star Party, 44.2935°N, 120.1332°W

Satellite Date Start Highest point End Downlink Frequencies (MHz)
Time Altitude Azimuth
CUBEBUG 1 27 May 12:31:27 12:35:57 81° 103° (ESE) 12:40:23 437.445
VELOX 1 27 May 12:34:51 12:39:13 51° 288° (WNW) 12:43:33 145.980
Oscar 19 27 May 12:37:31 12:41:50 28° 65° (ENE) 12:46:14 437.125/150
ESTCUBE 1 27 May 12:39:30 12:44:02 75° 285° (WNW) 12:48:33 437.505/2401.250
BUGSAT 1 27 May 12:40:01 12:42:56 18° 269° (W) 12:45:44 437.445
CUSAT 1 27 May 12:41:15 12:48:14 45° 90° (E) 12:56:04 437.405
HO-68 27 May 12:44:08 12:45:42 11° 315° (NW) 12:46:53 435.675
GONETS M04 27 May 12:44:34 12:52:26 39° 86° (E) 13:00:26
50 SAT 27 May 12:48:43 12:52:02 26° 291° (WNW) 12:55:16 437.505
ITAMSAT 1 27 May 12:55:08 12:57:23 13° 58° (ENE) 12:59:52 435.822/435.867
AISAT 27 May 13:07:13 13:10:55 25° 294° (WNW) 13:14:32 437.250
SPROUT 27 May 13:08:23 13:12:41 58° 101° (E) 13:16:56 437.525
Cosmos 2504 27 May 13:08:24 13:11:59 13° 306° (NW) 13:15:00 435.465 / 435.565
SO-50 27 May 13:26:58 13:30:40 21° 248° (WSW) 13:34:12 436.795
TISAT 1 27 May 13:29:36 13:33:53 71° 102° (ESE) 13:38:08 437.305
Gurwin Techsat 1B 27 May 13:33:40 13:37:58 27° 65° (ENE) 13:42:23 435.225
Cosmos 2499 27 May 13:47:28 13:51:34 16° 80° (E) 13:55:58 435.465 / 435.565
DANDE 27 May 13:55:38 14:02:57 80° 281° (W) 14:11:34 436.750
CUBEBUG 1 27 May 14:09:52 14:11:44 12° 299° (WNW) 14:13:24 437.445
AO-7 27 May 14:12:22 14:18:25 24° 51° (NE) 14:24:45 29.400- 29.500
Oscar 19 27 May 14:16:07 14:21:01 41° 262° (W) 14:25:56 437.125/150
JAS-2 27 May 14:16:30 14:20:05 16° 60° (ENE) 14:23:42 435.910
RS-15 27 May 14:23:42 14:32:44 27° 5° (N) 14:42:09 29.354- 29.394
CUSAT 1 27 May 14:23:43 14:31:00 45° 291° (WNW) 14:38:54 437.405
ITAMSAT 1 27 May 14:31:01 14:36:12 86° 71° (ENE) 14:41:25 435.822/435.867
HORYU 2 27 May 14:33:11 14:35:42 15° 62° (ENE) 14:38:23 437.375
ITUPSAT 1 27 May 14:37:18 14:42:01 56° 100° (E) 14:46:44 437.325
GONETS M04 27 May 14:40:33 14:49:07 51° 287° (WNW) 14:57:40
KKS-1 27 May 14:40:58 14:42:12 11° 87° (E) 14:43:43 437.445
BEESAT 27 May 14:44:35 14:49:21 68° 101° (E) 14:54:07 436.000
SPROUT 27 May 14:45:43 14:48:21 16° 297° (WNW) 14:50:51 437.525
O/OREOS (USA 219) 27 May 14:48:54 14:51:06 14° 100° (E) 14:53:31 437.305
SWISSCUBE 27 May 14:53:10 14:58:00 88° 112° (ESE) 15:02:47 437.505
TISAT 1 27 May 15:07:09 15:09:09 13° 298° (WNW) 15:10:57 437.305
Gurwin Techsat 1B 27 May 15:12:41 15:17:45 45° 262° (W) 15:22:51 435.225
Cosmos 2499 27 May 15:35:43 15:43:50 84° 98° (E) 15:51:23 435.465 / 435.565
STARS 27 May 15:41:31 15:45:25 30° 95° (E) 15:49:21 437.465
DANDE 27 May 15:42:10 15:47:52 20° 306° (NW) 15:53:39 436.750
JAS-2 27 May 15:58:02 16:04:42 89° 251° (WSW) 16:10:36 435.910
AO-7 27 May 16:02:00 16:10:19 90° 44° (NE) 16:18:42 29.400- 29.500
HORYU 2 27 May 16:07:27 16:11:54 63° 258° (WSW) 16:16:22 437.375
CUSAT 1 27 May 16:13:58 16:16:15 11° 314° (NW) 16:18:02 437.405
ITAMSAT 1 27 May 16:14:20 16:16:31 12° 274° (W) 16:18:24 435.822/435.867
KKS-1 27 May 16:14:59 16:19:29 76° 285° (WNW) 16:23:56 437.445
ITUPSAT 1 27 May 16:16:11 16:19:32 19° 297° (WNW) 16:22:46 437.325
BEESAT 27 May 16:23:47 16:26:44 16° 298° (WNW) 16:29:30 436.000
O/OREOS (USA 219) 27 May 16:25:35 16:30:04 63° 296° (WNW) 16:34:33 437.305
YUBILEINY 27 May 16:30:14 16:32:05 11° 47° (NE) 16:34:33 435.215
SWISSCUBE 27 May 16:33:06 16:35:13 13° 301° (WNW) 16:37:06 437.505
RS-15 27 May 16:38:07 16:48:59 46° 37° (NE) 17:00:24 29.354- 29.394
GONETS M04 27 May 16:46:41 16:48:51 11° 313° (NW) 16:50:23
CUTE-I 27 May 16:51:34 16:54:16 15° 58° (ENE) 16:57:11 437.470
Cubesat XI-IV 27 May 17:11:02 17:14:53 21° 62° (ENE) 17:18:53 437.490
STARS 27 May 17:18:01 17:21:49 28° 293° (WNW) 17:25:32 437.465
BEESAT 2 27 May 17:25:08 17:27:34 16° 112° (ESE) 17:30:10 435.950
Cosmos 2499 27 May 17:32:14 17:37:59 21° 298° (WNW) 17:43:13 435.465 / 435.565
JAS-2 27 May 17:47:02 17:50:32 14° 272° (W) 17:53:30 435.910
MOZHAYETS 4 27 May 17:49:05 17:53:41 90° 287° (WNW) 17:58:15
AO-7 27 May 17:58:30 18:04:22 20° 272° (W) 18:09:51 29.400- 29.500
BEESAT 3 27 May 18:11:20 18:15:20 57° 121° (ESE) 18:19:23 437.485
YUBILEINY 27 May 18:23:13 18:31:40 53° 74° (ENE) 18:40:08 435.215
CUTE-I 27 May 18:28:22 18:33:41 89° 253° (WSW) 18:39:04 437.470
Cosmos 2491 27 May 18:30:37 18:37:27 28° 82° (E) 18:44:37 435.465 / 435.565
BRITE-PL 27 May 18:44:21 18:47:17 16° 59° (ENE) 18:50:31 437.365/2234.400
GOMX 1 27 May 18:45:28 18:46:01 10° 56° (NE) 18:46:53 467.674
Cubesat XI-IV 27 May 18:49:22 18:54:36 58° 259° (W) 18:59:53 437.490
RS-15 27 May 18:50:45 19:02:16 69° 242° (WSW) 19:14:11 29.354- 29.394
AIST 2 27 May 18:56:19 19:00:17 40° 118° (ESE) 19:04:19 435.215
PRISM 27 May 18:57:12 18:59:45 16° 91° (E) 19:02:25 437.425
BEESAT 2 27 May 19:01:12 19:05:16 56° 308° (NW) 19:09:22 435.950
MOZHAYETS 4 27 May 19:28:47 19:30:16 11° 300° (WNW) 19:31:32
CUBESAT XI-V 27 May 19:29:57 19:34:41 85° 105° (ESE) 19:39:25 437.345
STRAND 1 27 May 19:30:33 19:35:14 35° 96° (E) 19:39:57 437.568
HO-68 27 May 19:35:41 19:41:52 33° 61° (ENE) 19:48:10 435.675
DOVE 4 27 May 19:38:36 19:42:18 21° 63° (ENE) 19:46:13 437.250
BEESAT 3 27 May 19:50:34 19:53:40 20° 320° (NW) 19:56:43 437.485
CANX-2 27 May 19:50:46 19:53:58 21° 67° (ENE) 19:57:15 2200.000
CUTE 1.7 + AOD 2 27 May 19:54:13 19:57:23 21° 67° (ENE) 20:00:38 437.475
AIST 1 27 May 20:06:14 20:09:24 21° 88° (E) 20:12:41
CUTE-I 27 May 20:12:40 20:14:40 12° 275° (W) 20:16:20 437.470
SEEDS 27 May 20:14:58 20:18:33 28° 69° (ENE) 20:22:11 437.485
GOMX 1 27 May 20:17:59 20:23:07 63° 73° (ENE) 20:28:32 467.674
BRITE-PL 27 May 20:19:52 20:25:01 86° 255° (WSW) 20:30:36 437.365/2234.400
YUBILEINY 27 May 20:20:31 20:28:16 37° 274° (W) 20:35:50 435.215
Cosmos 2491 27 May 20:24:54 20:33:40 69° 282° (WNW) 20:42:31 435.465 / 435.565
COMPASS 1 27 May 20:26:42 20:30:21 30° 69° (ENE) 20:34:02 437.405
PRISM 27 May 20:31:29 20:35:29 46° 288° (WNW) 20:39:29 437.425
AIST 2 27 May 20:35:19 20:39:00 27° 317° (NW) 20:42:39 435.215
AAUSAT CUBESAT 2 27 May 20:37:57 20:41:41 34° 70° (ENE) 20:45:29 437.432
UWE-3 27 May 20:42:42 20:45:34 17° 64° (ENE) 20:48:34 435.000/436.395/437.385
BEESAT 2 27 May 20:42:59 20:44:17 11° 329° (NNW) 20:45:28 435.950
CINEMA 3 27 May 20:46:14 20:50:54 41° 70° (ENE) 20:55:37 145.822/145.860
M-CUBED/EXP-1 PRIME 27 May 20:47:54 20:51:13 90° 301° (WNW) 20:54:33 437.505
FUNcube-1 27 May 20:50:39 20:53:12 15° 63° (ENE) 20:55:55 145.935
AUBIESAT-1 27 May 20:55:11 20:58:30 85° 291° (WNW) 21:01:50 437.475
Cosmos 2504 27 May 20:59:06 21:06:05 50° 74° (ENE) 21:13:04 435.465 / 435.565
DELFI C3 27 May 21:00:00 21:02:56 20° 67° (ENE) 21:05:57 145.870
RS-15 27 May 21:06:08 21:12:56 16° 261° (W) 21:18:54 29.354- 29.394
CUBESAT XI-V 27 May 21:09:25 21:11:31 13° 299° (WNW) 21:13:24 437.345
STRAND 1 27 May 21:09:51 21:14:24 32° 294° (WNW) 21:18:52 437.568
DOVE 4 27 May 21:14:30 21:19:35 61° 260° (W) 21:24:52 437.250
HUMSAT D 27 May 21:18:42 21:20:40 13° 63° (ENE) 21:22:50 437.325/437.525
HO-68 27 May 21:22:19 21:29:21 54° 260° (W) 21:36:22 435.675
CANX-2 27 May 21:25:43 21:29:42 37° 263° (W) 21:33:40 2200.000
CUTE 1.7 + AOD 2 27 May 21:29:06 21:33:06 38° 263° (W) 21:37:05 437.475
ZACube-1 27 May 21:29:43 21:33:53 36° 70° (ENE) 21:38:05 437.345
UKube-1 27 May 21:31:03 21:33:57 18° 64° (ENE) 21:36:59 .
CUBEBUG 2 27 May 21:31:36 21:36:17 58° 73° (ENE) 21:40:58 437.445
Oscar 11 27 May 21:39:55 21:44:14 76° 76° (ENE) 21:48:35 145.826/435.025
DX 1 27 May 21:40:33 21:44:00 24° 66° (ENE) 21:47:34 434.975-435.025
AIST 1 27 May 21:42:58 21:46:52 34° 286° (WNW) 21:50:47
SEEDS 27 May 21:50:41 21:54:20 27° 266° (W) 21:57:55 437.485
GOMX 1 27 May 21:58:06 22:01:47 18° 273° (W) 22:05:23 467.674
VELOX 1 27 May 21:58:47 22:01:54 20° 64° (ENE) 22:05:09 145.980
50 SAT 27 May 22:00:47 22:03:36 19° 67° (ENE) 22:06:31 437.505
COMPASS 1 27 May 22:02:33 22:06:03 25° 266° (W) 22:09:29 437.405
BRITE-PL 27 May 22:02:40 22:04:35 11° 278° (W) 22:06:11 437.365/2234.400
ESTCUBE 1 27 May 22:06:17 22:08:37 14° 62° (ENE) 22:11:07 437.505/2401.250
AAUSAT CUBESAT 2 27 May 22:14:07 22:17:24 22° 267° (W) 22:20:37 437.432
UWE-3 27 May 22:17:01 22:21:40 62° 260° (W) 22:26:19 435.000/436.395/437.385
CINEMA 3 27 May 22:24:00 22:28:13 26° 268° (W) 22:32:24 145.822/145.860
FUNcube-1 27 May 22:24:30 22:29:04 66° 259° (W) 22:33:37 145.935
ANTELSAT 27 May 22:27:05 22:28:45 12° 87° (E) 22:30:39 437.575/2403.000
Cosmos 2491 27 May 22:27:31 22:32:41 16° 307° (NW) 22:37:23 435.465 / 435.565
ISS 27 May 22:27:39 22:28:16 10° 132° (SE) 22:29:00 145.825
AISAT 27 May 22:29:35 22:33:43 39° 70° (ENE) 22:37:55 437.250
DELFI C3 27 May 22:34:07 22:37:51 35° 263° (W) 22:41:34 145.870
HUMSAT D 27 May 22:51:37 22:55:56 69° 258° (WSW) 23:00:15 437.325/437.525
GONETS M04 27 May 22:52:48 22:58:56 21° 58° (ENE) 23:05:24
Cosmos 2504 27 May 22:53:02 22:59:12 31° 274° (W) 23:05:12 435.465 / 435.565
DANDE 27 May 22:54:53 23:00:44 22° 56° (NE) 23:06:00 436.750
TIGRISAT 27 May 22:57:57 23:01:34 25° 93° (E) 23:05:10 435.000
UKube-1 27 May 23:05:35 23:09:46 48° 261° (W) 23:13:59 .
ZACube-1 27 May 23:06:29 23:10:20 25° 267° (W) 23:14:05 437.345
QB50P1 27 May 23:09:02 23:11:35 16° 90° (E) 23:14:18 145.935-145.965
CUBEBUG 2 27 May 23:10:14 23:13:23 17° 271° (W) 23:16:21 437.445
POLYITAN 1 27 May 23:11:26 23:14:12 17° 90° (E) 23:17:05 437.675
DX 1 27 May 23:16:06 23:20:07 35° 263° (W) 23:24:08 434.975-435.025
UNISAT 6 27 May 23:18:27 23:22:39 43° 98° (E) 23:26:45 437.425
CUSAT 1 27 May 23:19:24 23:26:04 36° 65° (ENE) 23:31:28 437.405
Oscar 11 27 May 23:20:03 23:21:03 10° 274° (W) 23:21:46 145.826/435.025
CUBEBUG 1 27 May 23:28:56 23:33:17 81° 76° (ENE) 23:37:43 437.445
VELOX 1 27 May 23:33:52 23:38:10 46° 261° (W) 23:42:28 145.980
50 SAT 27 May 23:34:21 23:38:06 37° 263° (W) 23:41:49 437.505
NANOSAT C BR1 27 May 23:39:02 23:42:53 32° 96° (E) 23:46:44 145.865
ESTCUBE 1 27 May 23:40:33 23:45:00 67° 258° (WSW) 23:49:30 437.505/2401.250
QB50P2 27 May 23:47:41 23:51:46 41° 98° (E) 23:55:49 145.880/145.840
POPSAT HIP 1 27 May 23:59:37 00:03:50 54° 100° (E) 00:08:00 437.405
DUCHIFAT 1 28 May 00:00:40 00:04:53 54° 100° (E) 00:09:03 145.980
ISS 28 May 00:00:58 00:04:13 77° 145° (SE) 00:07:28 145.825
ANTELSAT 28 May 00:01:45 00:06:07 65° 287° (WNW) 00:10:23 437.575/2403.000
SPROUT 28 May 00:03:52 00:08:04 54° 73° (ENE) 00:12:21 437.525
AISAT 28 May 00:06:59 00:10:29 22° 268° (W) 00:13:53 437.250
PCSat 28 May 00:09:25 00:13:32 23° 108° (ESE) 00:17:47 145.827
ITUPSAT 1 28 May 00:12:28 00:13:10 10° 58° (ENE) 00:14:09 437.325
BEESAT 28 May 00:18:17 00:20:05 12° 59° (ENE) 00:22:06 436.000
BUGSAT 1 28 May 00:18:59 00:23:14 60° 101° (E) 00:27:26 437.445
TISAT 1 28 May 00:23:00 00:27:12 64° 74° (ENE) 00:31:28 437.305
SWISSCUBE 28 May 00:25:55 00:28:38 16° 61° (ENE) 00:31:32 437.505
TIGRISAT 28 May 00:34:27 00:38:22 31° 291° (WNW) 00:42:09 435.000
DANDE 28 May 00:37:18 00:45:18 83° 261° (W) 00:51:31 436.750
QB50P1 28 May 00:43:38 00:47:48 49° 288° (WNW) 00:51:55 145.935-145.965
POLYITAN 1 28 May 00:46:17 00:50:25 46° 288° (WNW) 00:54:29 437.675
GONETS M04 28 May 00:48:26 00:57:18 89° 85° (E) 01:06:03
BEESAT 3 28 May 00:52:36 00:53:42 11° 31° (NNE) 00:54:55 437.485
O/OREOS (USA 219) 28 May 00:54:54 00:59:02 36° 59° (ENE) 01:03:10 437.305
UNISAT 6 28 May 00:55:56 00:59:09 20° 295° (WNW) 01:02:14 437.425
CUSAT 1 28 May 01:02:11 01:08:55 42° 271° (W) 01:14:10 437.405
NANOSAT C BR1 28 May 01:15:05 01:18:37 25° 293° (WNW) 01:22:03 145.865
VERMONT LUNAR 28 May 01:23:31 01:25:14 14° 154° (SSE) 01:27:00 437.305
QB50P2 28 May 01:24:13 01:27:25 20° 295° (WNW) 01:30:28 145.880/145.840
Cosmos 2499 28 May 01:25:19 01:31:20 30° 68° (ENE) 01:37:30 435.465 / 435.565
POPSAT HIP 1 28 May 01:36:37 01:39:19 16° 297° (WNW) 01:41:51 437.405
DUCHIFAT 1 28 May 01:37:38 01:40:18 16° 296° (WNW) 01:42:48 145.980
ISS 28 May 01:38:01 01:40:53 27° 346° (NNW) 01:43:45 145.825
KKS-1 28 May 01:40:29 01:42:46 14° 62° (ENE) 01:45:14 437.445
BEESAT 2 28 May 01:41:34 01:44:40 20° 40° (NE) 01:47:47 435.950
SPROUT 28 May 01:41:58 01:44:33 15° 271° (W) 01:47:00 437.525
ITUPSAT 1 28 May 01:45:35 01:50:20 77° 74° (ENE) 01:55:07 437.325
PCSat 28 May 01:51:16 01:56:36 56° 306° (NW) 02:01:58 145.827
BEESAT 28 May 01:52:32 01:57:17 89° 255° (WSW) 02:02:06 436.000
BUGSAT 1 28 May 01:55:49 01:58:16 15° 297° (WNW) 02:00:33 437.445
SWISSCUBE 28 May 02:01:17 02:06:01 68° 258° (WSW) 02:10:47 437.505
TISAT 1 28 May 02:01:39 02:03:30 12° 272° (W) 02:05:09 437.305
SO-50 28 May 02:04:25 02:06:11 12° 108° (ESE) 02:08:13 436.795
DANDE 28 May 02:22:46 02:27:04 16° 283° (WNW) 02:30:35 436.750
Oscar 19 28 May 02:25:41 02:30:49 62° 101° (ESE) 02:35:53 437.125/150
BEESAT 3 28 May 02:28:34 02:32:37 57° 52° (NE) 02:36:36 437.485
O/OREOS (USA 219) 28 May 02:34:39 02:38:18 24° 256° (WSW) 02:41:52 437.305
STARS 28 May 02:39:52 02:43:50 33° 69° (ENE) 02:47:53 437.465
ITAMSAT 1 28 May 02:42:43 02:47:05 27° 94° (E) 02:51:32 435.822/435.867
GONETS M04 28 May 02:47:05 02:53:04 20° 282° (WNW) 02:58:36
VERMONT LUNAR 28 May 02:58:57 03:01:55 34° 169° (S) 03:04:53 437.305
KKS-1 28 May 03:14:26 03:18:54 69° 258° (WSW) 03:23:25 437.445
ISS 28 May 03:15:19 03:17:59 22° 6° (N) 03:20:40 145.825
AIST 2 28 May 03:16:26 03:20:31 44° 49° (NE) 03:24:32 435.215
Cosmos 2499 28 May 03:18:03 03:24:51 51° 268° (W) 03:31:42 435.465 / 435.565
MOZHAYETS 4 28 May 03:18:28 03:20:18 13° 61° (ENE) 03:22:19
BEESAT 2 28 May 03:19:02 03:23:05 54° 240° (WSW) 03:27:01 435.950
Gurwin Techsat 1B 28 May 03:26:52 03:32:11 65° 101° (ESE) 03:37:28 435.225
ITUPSAT 1 28 May 03:26:52 03:28:54 12° 273° (W) 03:30:40 437.325
PCSat 28 May 03:38:33 03:41:19 14° 329° (NNW) 03:43:56 145.827
SO-50 28 May 03:41:20 03:46:03 87° 305° (NW) 03:50:57 436.795
PHONESAT 2.4 28 May 03:42:02 03:45:06 29° 164° (SSE) 03:48:11 2401.200-2431.200
HORYU 2 28 May 03:57:46 04:01:08 22° 93° (E) 04:04:36 437.375
AO-7 28 May 04:02:30 04:09:15 27° 92° (E) 04:16:13 29.400- 29.500
Oscar 19 28 May 04:06:04 04:09:44 19° 298° (WNW) 04:13:13 437.125/150
BEESAT 3 28 May 04:07:46 04:10:11 15° 249° (WSW) 04:12:27 437.485
STARS 28 May 04:16:37 04:20:21 25° 266° (W) 04:24:02 437.465
ITAMSAT 1 28 May 04:21:51 04:26:45 41° 292° (WNW) 04:31:36 435.822/435.867
VERMONT LUNAR 28 May 04:35:47 04:38:49 39° 186° (S) 04:41:50 437.305
Cosmos 2491 28 May 04:38:34 04:43:00 15° 52° (NE) 04:47:56 435.465 / 435.565
JAS-2 28 May 04:50:23 04:55:33 67° 101° (ESE) 05:00:53 435.910
ISS 28 May 04:51:41 04:54:54 52° 25° (NNE) 04:58:06 145.825
MOZHAYETS 4 28 May 04:52:22 04:56:57 81° 257° (WSW) 05:01:33
AIST 2 28 May 04:55:37 04:58:51 21° 247° (WSW) 05:01:56 435.215
CUBESAT XI-V 28 May 05:00:48 05:02:32 12° 60° (ENE) 05:04:29 437.345
Gurwin Techsat 1B 28 May 05:07:56 05:11:42 19° 299° (WNW) 05:15:19 435.225
PHONESAT 2.4 28 May 05:19:33 05:22:53 44° 181° (S) 05:26:13 2401.200-2431.200
SO-50 28 May 05:24:00 05:27:22 18° 326° (NNW) 05:30:42 436.795
HORYU 2 28 May 05:33:50 05:37:58 38° 290° (WNW) 05:42:02 437.375
PRISM 28 May 05:49:25 05:51:48 16° 64° (ENE) 05:54:20 437.425
AO-7 28 May 05:54:29 06:02:49 71° 293° (WNW) 06:11:07 29.400- 29.500
M-CUBED/EXP-1 PRIME 28 May 06:04:24 06:06:50 16° 61° (ENE) 06:09:17 437.505
AUBIESAT-1 28 May 06:11:14 06:13:41 16° 61° (ENE) 06:16:08 437.475
VERMONT LUNAR 28 May 06:13:13 06:15:35 19° 202° (SSW) 06:17:55 437.305
ISS 28 May 06:28:26 06:31:09 24° 223° (SW) 06:33:49 145.825
Cosmos 2491 28 May 06:33:18 06:42:06 67° 77° (ENE) 06:50:51 435.465 / 435.565
CUBESAT XI-V 28 May 06:34:45 06:39:22 84° 259° (W) 06:44:01 437.345
JAS-2 28 May 06:36:56 06:40:16 17° 299° (WNW) 06:43:26 435.910
CUTE-I 28 May 06:44:08 06:48:55 32° 95° (E) 06:53:44 437.470
STRAND 1 28 May 06:47:54 06:52:53 59° 72° (ENE) 06:57:56 437.568
PHONESAT 2.4 28 May 06:57:38 07:00:40 28° 197° (SSW) 07:03:40 2401.200-2431.200
Cubesat XI-IV 28 May 07:04:54 07:10:07 50° 99° (E) 07:15:20 437.490
RS-15 28 May 07:10:37 07:15:45 15° 98° (E) 07:21:47 29.354- 29.394
PRISM 28 May 07:22:55 07:26:54 51° 260° (W) 07:30:55 437.425
YUBILEINY 28 May 07:25:48 07:34:15 57° 91° (E) 07:42:45 435.215
M-CUBED/EXP-1 PRIME 28 May 07:37:23 07:41:27 50° 254° (WSW) 07:45:13 437.505
AUBIESAT-1 28 May 07:44:15 07:48:15 47° 255° (WSW) 07:51:58 437.475
AIST 1 28 May 07:47:47 07:52:10 66° 79° (E) 07:56:33
AO-7 28 May 07:48:51 07:54:21 19° 313° (NW) 07:59:31 29.400- 29.500
GOMX 1 28 May 08:19:45 08:23:21 19° 87° (E) 08:27:00 467.674
BRITE-PL 28 May 08:23:39 08:28:39 32° 93° (E) 08:33:31 437.365/2234.400
CUTE-I 28 May 08:24:08 08:29:02 36° 293° (WNW) 08:33:52 437.470
STRAND 1 28 May 08:29:03 08:32:34 18° 270° (W) 08:35:55 437.568
Cosmos 2491 28 May 08:31:06 08:38:22 29° 277° (W) 08:45:21 435.465 / 435.565
Cubesat XI-IV 28 May 08:45:37 08:49:57 25° 296° (WNW) 08:54:11 437.490
HO-68 28 May 08:48:35 08:54:28 28° 92° (E) 09:00:29 435.675
PCSat 28 May 08:54:31 08:59:15 30° 45° (NE) 09:04:01 145.827
CANX-2 28 May 09:09:20 09:13:06 31° 96° (E) 09:16:53 2200.000
CUTE 1.7 + AOD 2 28 May 09:12:40 09:16:25 31° 95° (E) 09:20:11 437.475
DOVE 4 28 May 09:12:41 09:17:23 36° 95° (E) 09:21:52 437.250
RS-15 28 May 09:15:28 09:26:11 70° 118° (ESE) 09:37:17 29.354- 29.394
YUBILEINY 28 May 09:23:43 09:31:36 35° 293° (WNW) 09:39:19 435.215
CUBEBUG 2 28 May 09:24:48 09:25:03 10° 85° (E) 09:25:36 437.445
ANTELSAT 28 May 09:27:14 09:30:02 16° 63° (ENE) 09:32:58 437.575/2403.000
AIST 1 28 May 09:27:38 09:29:19 12° 276° (W) 09:30:45
Oscar 11 28 May 09:27:39 09:29:18 12° 87° (E) 09:31:11 145.826/435.025
SEEDS 28 May 09:32:46 09:36:44 42° 98° (E) 09:40:43 437.485
Cosmos 2504 28 May 09:38:44 09:46:17 42° 89° (E) 09:53:28 435.465 / 435.565
COMPASS 1 28 May 09:43:33 09:47:33 44° 99° (E) 09:51:32 437.405
AAUSAT CUBESAT 2 28 May 09:54:21 09:58:24 50° 99° (E) 10:02:26 437.432
GOMX 1 28 May 09:56:40 10:02:00 61° 287° (WNW) 10:07:02 467.674
TIGRISAT 28 May 09:57:55 10:01:57 30° 68° (ENE) 10:06:00 435.000
BRITE-PL 28 May 10:01:58 10:07:13 39° 292° (WNW) 10:12:13 437.365/2234.400
QB50P1 28 May 10:03:42 10:06:16 16° 64° (ENE) 10:09:00 145.935-145.965
UWE-3 28 May 10:06:15 10:09:44 23° 92° (E) 10:13:13 435.000/436.395/437.385
POLYITAN 1 28 May 10:06:19 10:09:06 17° 64° (ENE) 10:12:02 437.675
DELFI C3 28 May 10:11:49 10:15:10 25° 94° (E) 10:18:34 145.870
FUNcube-1 28 May 10:12:20 10:15:33 21° 91° (E) 10:18:48 145.935
CINEMA 3 28 May 10:16:45 10:21:31 76° 102° (ESE) 10:26:00 145.822/145.860
UNISAT 6 28 May 10:18:30 10:23:00 48° 72° (ENE) 10:27:29 437.425
SO-50 28 May 10:31:27 10:35:28 24° 39° (NE) 10:39:29 436.795
NANOSAT C BR1 28 May 10:33:07 10:36:50 30° 69° (ENE) 10:40:38 145.865
HUMSAT D 28 May 10:35:19 10:37:59 17° 90° (E) 10:40:44 437.325/437.525
HO-68 28 May 10:35:39 10:42:43 61° 292° (WNW) 10:49:41 435.675
PCSat 28 May 10:37:42 10:42:56 49° 245° (WSW) 10:48:06 145.827
QB50P2 28 May 10:42:01 10:46:00 39° 71° (ENE) 10:50:02 145.880/145.840
CANX-2 28 May 10:45:28 10:48:55 24° 292° (WNW) 10:52:17 2200.000
CUTE 1.7 + AOD 2 28 May 10:48:45 10:52:14 25° 292° (WNW) 10:55:37 437.475
DOVE 4 28 May 10:50:35 10:55:01 29° 294° (WNW) 10:59:11 437.250
UKube-1 28 May 10:51:49 10:55:21 24° 94° (E) 10:58:57 .
ZACube-1 28 May 10:52:50 10:57:07 58° 100° (E) 11:01:16 437.345
POPSAT HIP 1 28 May 10:53:42 10:57:51 50° 72° (ENE) 11:02:03 437.405
DUCHIFAT 1 28 May 10:54:20 10:58:27 49° 72° (ENE) 11:02:38 145.980
CUBEBUG 2 28 May 10:58:01 11:02:30 79° 286° (WNW) 11:06:48 437.445
Oscar 11 28 May 11:01:43 11:06:00 65° 286° (WNW) 11:10:16 145.826/435.025
ANTELSAT 28 May 11:01:44 11:06:24 63° 260° (W) 11:11:00 437.575/2403.000
DX 1 28 May 11:02:35 11:06:35 34° 97° (E) 11:10:36 434.975-435.025
SEEDS 28 May 11:09:18 11:12:17 19° 294° (WNW) 11:15:09 437.485
50 SAT 28 May 11:09:32 11:12:30 21° 93° (E) 11:15:32 437.505
BUGSAT 1 28 May 11:10:22 11:14:23 51° 72° (ENE) 11:18:31 437.445
CUBEBUG 1 28 May 11:17:48 11:19:59 14° 88° (E) 11:22:23 437.445
COMPASS 1 28 May 11:20:05 11:22:56 18° 294° (WNW) 11:25:39 437.405
VELOX 1 28 May 11:22:54 11:26:48 29° 95° (E) 11:30:43 145.980
RS-15 28 May 11:29:06 11:39:27 43° 325° (NW) 11:50:05 29.354- 29.394
AAUSAT CUBESAT 2 28 May 11:31:04 11:33:39 16° 295° (WNW) 11:36:05 437.432
Cosmos 2504 28 May 11:31:57 11:39:43 43° 288° (WNW) 11:46:56 435.465 / 435.565
ESTCUBE 1 28 May 11:32:11 11:35:44 23° 93° (E) 11:39:22 437.505/2401.250
TIGRISAT 28 May 11:34:27 11:38:39 31° 265° (W) 11:42:45 435.000
QB50P1 28 May 11:37:33 11:41:45 54° 260° (W) 11:46:00 145.935-145.965
POLYITAN 1 28 May 11:40:29 11:44:41 50° 261° (W) 11:48:54 437.675
UWE-3 28 May 11:42:23 11:46:23 34° 290° (WNW) 11:50:13 435.000/436.395/437.385
DELFI C3 28 May 11:46:50 11:50:16 27° 291° (WNW) 11:53:38 145.870
FUNcube-1 28 May 11:48:03 11:52:03 37° 290° (WNW) 11:55:56 145.935
AISAT 28 May 11:54:46 11:59:15 65° 101° (ESE) 12:03:42 437.250
CINEMA 3 28 May 11:55:37 11:58:05 14° 300° (WNW) 12:00:19 145.822/145.860
UNISAT 6 28 May 11:56:39 12:00:03 19° 269° (W) 12:03:18 437.425
GONETS M04 28 May 11:57:42 12:03:39 22° 79° (E) 12:10:01
DANDE 28 May 12:06:09 12:11:44 24° 82° (E) 12:18:09 436.750
Oscar 19 28 May 12:07:32 12:10:26 16° 60° (ENE) 12:13:33 437.125/150
NANOSAT C BR1 28 May 12:09:04 12:12:42 26° 266° (W) 12:16:18 145.865
HUMSAT D 28 May 12:10:02 12:14:00 43° 288° (WNW) 12:17:54 437.325/437.525
SO-50 28 May 12:11:31 12:16:27 65° 239° (WSW) 12:21:17 436.795
